Location: Allonne
(49.4086°N, 2.1143°E)
Time: 03:58:48
(UTC+00:00)

UNISAT 6 - Pass Details

Date: 29 November 2023
Orbit: 596 x 671 km, 97.7° (Epoch: 22 February)

Event Time Altitude Azimuth Distance (km) Brightness Sun altitude
Rises 18:05:32 0° 4° (N) 3,014 ? -20.3°
Reaches altitude 10° 18:08:02 10° 353° (N) 2,086 ? -20.7°
Maximum altitude 18:11:51 27° 296° (WNW) 1,244 ? -21.3°
Drops below altitude 10° 18:15:36 10° 238° (WSW) 2,034 ? -21.9°
Sets 18:18:00 0° 227° (SW) 2,924 ? -22.3°
